Location: Brabourne
(51.1333°N, 1.0000°E)
Time: 06:34:54
(UTC+00:00)

Cosmos 2298 Rocket - Pass Details

Date: 20 June 2021
Orbit: 775 x 784 km, 74.0° (Epoch: 02 August)

Event Time Altitude Azimuth Distance (km) Brightness Sun altitude
Rises 02:24:58 0° 332° (NNW) 3,280 7.7 -8.7°
Reaches altitude 10° 02:27:24 10° 328° (NNW) 2,348 6.9 -8.5°
Maximum altitude 02:32:35 54° 253° (WSW) 946 4.2 -8.0°
Drops below altitude 10° 02:37:45 10° 176° (S) 2,336 6.1 -7.5°
Sets 02:40:10 0° 172° (S) 3,261 6.8 -7.3°
